Location: Firdgum
(53.2488°N, 5.5615°E)
Time: 10:15:56
(UTC+00:00)

Cosmos 1674 Rocket - Pass Details

Date: 08 December 2019
Orbit: 602 x 631 km, 82.5° (Epoch: 27 January)

Event Time Altitude Azimuth Distance (km) Brightness Sun altitude
Exits shadow 05:55:41 - 350° (N) 2,739 6.6 -14.2°
Reaches altitude 10° 05:57:33 10° 353° (N) 1,985 5.9 -14.0°
Maximum altitude 06:01:56 68° 77° (ENE) 661 3.9 -13.4°
Drops below altitude 10° 06:06:14 10° 161° (SSE) 1,954 6.7 -12.8°
Sets 06:08:26 0° 164° (SSE) 2,850 7.5 -12.4°
